| time (UTC) | temp F | wind direction | speed MPH | gust MPH | rain 1hr in | rain 24hr in | rain mn in | humidity % | barometer mb |
| 20260509135237 | 56 | 300 | 0.0 | 1.0 | 0.00 | 0.00 | 0.00 | 60 | 1019.3 |
| 20260509134734 | 56 | 317 | 0.0 | 0.0 | 0.00 | 0.00 | 0.00 | 61 | 1019.4 |
| 20260509134232 | 56 | 275 | 0.0 | 2.0 | 0.00 | 0.00 | 0.00 | 61 | 1019.2 |
| 20260509133729 | 55 | 294 | 0.0 | 0.0 | 0.00 | 0.00 | 0.00 | 61 | 1019.1 |
| 20260509133225 | 55 | 234 | 0.0 | 0.0 | 0.00 | 0.00 | 0.00 | 62 | 1019.2 |
| 20260509132724 | 55 | 272 | 0.0 | 0.0 | 0.00 | 0.00 | 0.00 | 62 | 1019.0 |
| 20260509132222 | 55 | 298 | 0.0 | 0.0 | 0.00 | 0.00 | 0.00 | 62 | 1019.0 |
| 20260509131718 | 54 | 326 | 0.0 | 0.0 | 0.00 | 0.00 | 0.00 | 62 | 1019.1 |
| 20260509131215 | 54 | 314 | 0.0 | 0.0 | 0.00 | 0.00 | 0.00 | 62 | 1018.8 |
| 20260509130711 | 54 | 283 | 0.0 | 0.0 | 0.00 | 0.00 | 0.00 | 64 | 1018.8 |
| 20260509130207 | 54 | 239 | 0.0 | 0.0 | 0.00 | 0.00 | 0.00 | 63 | 1018.8 |
| 20260509125704 | 54 | 234 | 2.0 | 3.0 | 0.00 | 0.00 | 0.00 | 62 | 1018.7 |
| 20260509125201 | 54 | 244 | 0.0 | 3.0 | 0.00 | 0.00 | 0.00 | 61 | 1018.5 |
| 20260509124657 | 53 | 262 | 0.0 | 1.0 | 0.00 | 0.00 | 0.00 | 62 | 1018.7 |
| 20260509124154 | 53 | 250 | 0.0 | 2.0 | 0.00 | 0.00 | 0.00 | 63 | 1018.4 |
| 20260509123652 | 53 | 268 | 0.0 | 1.0 | 0.00 | 0.00 | 0.00 | 63 | 1018.5 |
| 20260509123149 | 53 | 285 | 0.0 | 0.0 | 0.00 | 0.00 | 0.00 | 62 | 1018.4 |
| 20260509122644 | 53 | 313 | 0.0 | 1.0 | 0.00 | 0.00 | 0.00 | 62 | 1018.4 |
| 20260509122141 | 53 | 299 | 0.0 | 0.0 | 0.00 | 0.00 | 0.00 | 61 | 1018.4 |
| 20260509121638 | 54 | 294 | 0.0 | 2.0 | 0.00 | 0.00 | 0.00 | 59 | 1018.2 |
| 20260509121136 | 54 | 307 | 0.0 | 0.0 | 0.00 | 0.00 | 0.00 | 58 | 1018.2 |
| 20260509120634 | 53 | 314 | 0.0 | 0.0 | 0.00 | 0.00 | 0.00 | 59 | 1018.2 |
| 20260509120132 | 53 | 298 | 0.0 | 1.0 | 0.00 | 0.00 | 0.00 | 59 | 1018.1 |
| 20260509115629 | 54 | 254 | 1.0 | 4.0 | 0.00 | 0.00 | 0.00 | 59 | 1017.9 |
| 20260509115127 | 54 | 233 | 1.0 | 2.0 | 0.00 | 0.00 | 0.00 | 60 | 1017.9 |
| 20260509114624 | 53 | 245 | 4.0 | 7.0 | 0.00 | 0.00 | 0.00 | 58 | 1017.7 |
| 20260509114123 | 53 | 227 | 0.0 | 0.0 | 0.00 | 0.00 | 0.00 | 59 | 1017.8 |
| 20260509113621 | 53 | 271 | 0.0 | 0.0 | 0.00 | 0.00 | 0.00 | 59 | 1017.8 |
| 20260509113118 | 53 | 281 | 0.0 | 0.0 | 0.00 | 0.00 | 0.00 | 59 | 1017.7 |
| 20260509112614 | 53 | 293 | 0.0 | 0.0 | 0.00 | 0.00 | 0.00 | 61 | 1017.6 |
| 20260509112112 | 53 | 307 | 0.0 | 1.0 | 0.00 | 0.00 | 0.00 | 62 | 1017.7 |
| 20260509111609 | 53 | 323 | 1.0 | 3.0 | 0.00 | 0.00 | 0.00 | 62 | 1017.5 |
| 20260509111106 | 52 | 316 | 0.0 | 0.0 | 0.00 | 0.00 | 0.00 | 61 | 1017.5 |
| 20260509110603 | 52 | 316 | 0.0 | 1.0 | 0.00 | 0.00 | 0.00 | 61 | 1017.3 |
| 20260509110059 | 53 | 287 | 0.0 | 0.0 | 0.00 | 0.00 | 0.00 | 61 | 1017.4 |
| 20260509105558 | 53 | 293 | 0.0 | 0.0 | 0.00 | 0.00 | 0.00 | 62 | 1017.3 |
| 20260509105055 | 53 | 294 | 0.0 | 0.0 | 0.00 | 0.00 | 0.00 | 62 | 1017.1 |
| 20260509104552 | 54 | 293 | 0.0 | 2.0 | 0.00 | 0.00 | 0.00 | 63 | 1017.3 |
| 20260509104049 | 54 | 277 | 0.0 | 3.0 | 0.00 | 0.00 | 0.00 | 64 | 1017.0 |
| 20260509103547 | 54 | 266 | 3.0 | 6.0 | 0.00 | 0.00 | 0.00 | 64 | 1017.0 |
| 20260509103045 | 54 | 286 | 2.0 | 4.0 | 0.00 | 0.00 | 0.00 | 64 | 1017.0 |
| 20260509102542 | 54 | 279 | 4.0 | 6.0 | 0.00 | 0.00 | 0.00 | 63 | 1016.8 |
| 20260509102039 | 55 | 253 | 3.0 | 4.0 | 0.00 | 0.00 | 0.00 | 62 | 1016.8 |
| 20260509101535 | 54 | 277 | 2.0 | 3.0 | 0.00 | 0.00 | 0.00 | 62 | 1016.8 |
| 20260509101032 | 55 | 265 | 1.0 | 4.0 | 0.00 | 0.00 | 0.00 | 60 | 1016.9 |
| 20260509100529 | 55 | 287 | 0.0 | 3.0 | 0.00 | 0.00 | 0.00 | 60 | 1016.8 |
| 20260509100026 | 54 | 272 | 1.0 | 3.0 | 0.00 | 0.00 | 0.00 | 59 | 1016.8 |
| 20260509095523 | 54 | 291 | 0.0 | 3.0 | 0.00 | 0.00 | 0.00 | 58 | 1016.6 |
| 20260509095020 | 54 | 295 | 1.0 | 2.0 | 0.00 | 0.00 | 0.00 | 57 | 1016.7 |
| 20260509094516 | 54 | 285 | 1.0 | 4.0 | 0.00 | 0.00 | 0.00 | 55 | 1016.5 |
| 20260509094014 | 54 | 303 | 0.0 | 3.0 | 0.00 | 0.00 | 0.00 | 53 | 1016.5 |
| 20260509093512 | 53 | 312 | 0.0 | 1.0 | 0.00 | 0.00 | 0.00 | 55 | 1016.4 |
| 20260509093009 | 53 | 290 | 0.0 | 1.0 | 0.00 | 0.00 | 0.00 | 58 | 1016.5 |
| 20260509092507 | 53 | 284 | 0.0 | 0.0 | 0.00 | 0.00 | 0.00 | 58 | 1016.2 |
| 20260509092005 | 53 | 284 | 0.0 | 0.0 | 0.00 | 0.00 | 0.00 | 58 | 1016.3 |
| 20260509091502 | 53 | 266 | 0.0 | 0.0 | 0.00 | 0.00 | 0.00 | 59 | 1016.4 |
| 20260509090959 | 53 | 271 | 0.0 | 0.0 | 0.00 | 0.00 | 0.00 | 57 | 1016.1 |
| 20260509090456 | 53 | 272 | 0.0 | 0.0 | 0.00 | 0.00 | 0.00 | 56 | 1016.2 |
| 20260509085954 | 53 | 272 | 0.0 | 0.0 | 0.00 | 0.00 | 0.00 | 57 | 1016.1 |
| 20260509085450 | 53 | 270 | 0.0 | 0.0 | 0.00 | 0.00 | 0.00 | 56 | 1015.9 |
| 20260509084947 | 54 | 275 | 0.0 | 0.0 | 0.00 | 0.00 | 0.00 | 55 | 1015.9 |
| 20260509084443 | 54 | 278 | 0.0 | 0.0 | 0.00 | 0.00 | 0.00 | 54 | 1015.9 |
| 20260509083941 | 55 | 284 | 0.0 | 0.0 | 0.00 | 0.00 | 0.00 | 53 | 1015.9 |
| 20260509083438 | 55 | 296 | 0.0 | 2.0 | 0.00 | 0.00 | 0.00 | 54 | 1015.9 |
| 20260509082929 | 54 | 333 | 0.0 | 2.0 | 0.00 | 0.00 | 0.00 | 54 | 1015.7 |
| 20260509082426 | 54 | 286 | 0.0 | 0.0 | 0.00 | 0.00 | 0.00 | 52 | 1015.7 |
| 20260509081923 | 54 | 298 | 0.0 | 0.0 | 0.00 | 0.00 | 0.00 | 50 | 1015.6 |
| 20260509081420 | 54 | 294 | 0.0 | 0.0 | 0.00 | 0.00 | 0.00 | 49 | 1015.8 |
| 20260509080917 | 55 | 327 | 0.0 | 0.0 | 0.00 | 0.00 | 0.00 | 49 | 1015.8 |
| 20260509080415 | 54 | 321 | 1.0 | 2.0 | 0.00 | 0.00 | 0.00 | 49 | 1015.9 |
| 20260509075913 | 54 | 323 | 0.0 | 2.0 | 0.00 | 0.00 | 0.00 | 49 | 1015.6 |
| 20260509075410 | 54 | 321 | 0.0 | 0.0 | 0.00 | 0.00 | 0.00 | 50 | 1015.8 |
| 20260509074908 | 54 | 319 | 0.0 | 0.0 | 0.00 | 0.00 | 0.00 | 49 | 1015.9 |
| 20260509074405 | 55 | 312 | 0.0 | 1.0 | 0.00 | 0.00 | 0.00 | 48 | 1015.8 |
| 20260509073901 | 55 | 298 | 0.0 | 0.0 | 0.00 | 0.00 | 0.00 | 48 | 1015.6 |
| 20260509073358 | 56 | 330 | 1.0 | 1.0 | 0.00 | 0.00 | 0.00 | 47 | 1015.4 |
| 20260509072854 | 56 | 340 | 1.0 | 3.0 | 0.00 | 0.00 | 0.00 | 47 | 1015.6 |
| 20260509072351 | 56 | 322 | 1.0 | 3.0 | 0.00 | 0.00 | 0.00 | 46 | 1015.3 |
| 20260509071847 | 56 | 323 | 2.0 | 3.0 | 0.00 | 0.00 | 0.00 | 46 | 1015.4 |
| 20260509071344 | 57 | 318 | 2.0 | 2.0 | 0.00 | 0.00 | 0.00 | 46 | 1015.4 |
| 20260509070842 | 58 | 339 | 1.0 | 2.0 | 0.00 | 0.00 | 0.00 | 45 | 1015.5 |
| 20260509070338 | 58 | 342 | 2.0 | 3.0 | 0.00 | 0.00 | 0.00 | 47 | 1015.3 |
| 20260509065835 | 58 | 316 | 3.0 | 4.0 | 0.00 | 0.00 | 0.00 | 50 | 1015.4 |
| 20260509065331 | 58 | 316 | 2.0 | 6.0 | 0.00 | 0.00 | 0.00 | 49 | 1015.4 |
| 20260509064826 | 58 | 308 | 4.0 | 8.0 | 0.00 | 0.00 | 0.00 | 51 | 1015.1 |
| 20260509064325 | 59 | 311 | 4.0 | 8.0 | 0.00 | 0.00 | 0.00 | 51 | 1015.2 |
| 20260509063822 | 59 | 313 | 3.0 | 11.0 | 0.00 | 0.00 | 0.00 | 51 | 1014.9 |
| 20260509063318 | 59 | 327 | 9.0 | 13.0 | 0.00 | 0.00 | 0.00 | 51 | 1015.1 |
| 20260509062816 | 59 | 322 | 7.0 | 13.0 | 0.00 | 0.00 | 0.00 | 51 | 1014.7 |
| 20260509062312 | 59 | 316 | 9.0 | 15.0 | 0.00 | 0.00 | 0.00 | 51 | 1014.6 |
| 20260509061809 | 59 | 293 | 9.0 | 15.0 | 0.00 | 0.00 | 0.00 | 51 | 1014.5 |
| 20260509061308 | 59 | 297 | 8.0 | 16.0 | 0.00 | 0.00 | 0.00 | 51 | 1014.5 |
| 20260509060804 | 60 | 324 | 8.0 | 16.0 | 0.00 | 0.00 | 0.00 | 52 | 1014.2 |
| 20260509060301 | 60 | 306 | 9.0 | 15.0 | 0.00 | 0.00 | 0.00 | 51 | 1014.6 |
| 20260509055756 | 60 | 298 | 6.0 | 15.0 | 0.00 | 0.00 | 0.00 | 51 | 1014.5 |
| 20260509055252 | 60 | 317 | 6.0 | 15.0 | 0.00 | 0.00 | 0.00 | 50 | 1014.6 |
| 20260509054749 | 60 | 296 | 6.0 | 13.0 | 0.00 | 0.00 | 0.00 | 50 | 1014.7 |
| 20260509054246 | 60 | 283 | 7.0 | 11.0 | 0.00 | 0.00 | 0.00 | 49 | 1014.5 |
| 20260509053745 | 61 | 286 | 9.0 | 13.0 | 0.00 | 0.00 | 0.00 | 48 | 1014.3 |
| 20260509053241 | 61 | 339 | 9.0 | 14.0 | 0.00 | 0.00 | 0.00 | 48 | 1014.3 |
| 20260509052739 | 62 | 310 | 6.0 | 15.0 | 0.00 | 0.00 | 0.00 | 46 | 1014.2 |
| 20260509052237 | 62 | 284 | 6.0 | 9.0 | 0.00 | 0.00 | 0.00 | 45 | 1014.2 |
| 20260509051734 | 62 | 332 | 9.0 | 15.0 | 0.00 | 0.00 | 0.00 | 44 | 1014.1 |
| 20260509051232 | 63 | 316 | 10.0 | 13.0 | 0.00 | 0.00 | 0.00 | 42 | 1014.2 |
| 20260509050728 | 64 | 275 | 7.0 | 13.0 | 0.00 | 0.00 | 0.00 | 39 | 1014.1 |
| 20260509050225 | 64 | 320 | 11.0 | 15.0 | 0.00 | 0.00 | 0.00 | 39 | 1014.0 |
| 20260509045722 | 62 | 286 | 6.0 | 11.0 | 0.00 | 0.00 | 0.00 | 35 | 1014.0 |
| 20260509045219 | 63 | 328 | 3.0 | 8.0 | 0.00 | 0.00 | 0.00 | 30 | 1014.2 |
| 20260509044716 | 62 | 325 | 4.0 | 8.0 | 0.00 | 0.00 | 0.00 | 30 | 1014.1 |
| 20260509044214 | 62 | 329 | 4.0 | 7.0 | 0.00 | 0.00 | 0.00 | 30 | 1014.1 |
| 20260509043710 | 63 | 323 | 1.0 | 3.0 | 0.00 | 0.00 | 0.00 | 30 | 1013.9 |
| 20260509043206 | 64 | 332 | 2.0 | 6.0 | 0.00 | 0.00 | 0.00 | 29 | 1013.8 |
| 20260509042703 | 64 | 335 | 2.0 | 9.0 | 0.00 | 0.00 | 0.00 | 29 | 1013.8 |
| 20260509042158 | 64 | 30 | 5.0 | 8.0 | 0.00 | 0.00 | 0.00 | 29 | 1013.9 |
| 20260509041655 | 64 | 327 | 0.0 | 0.0 | 0.00 | 0.00 | 0.00 | 30 | 1013.4 |
| 20260509041153 | 64 | 319 | 0.0 | 3.0 | 0.00 | 0.00 | 0.00 | 30 | 1013.4 |
| 20260509040651 | 64 | 292 | 2.0 | 3.0 | 0.00 | 0.00 | 0.00 | 29 | 1013.4 |
| 20260509040148 | 65 | 297 | 0.0 | 2.0 | 0.00 | 0.00 | 0.00 | 28 | 1013.2 |
| 20260509035644 | 66 | 323 | 2.0 | 4.0 | 0.00 | 0.00 | 0.00 | 27 | 1013.1 |
| 20260509035141 | 66 | 332 | 3.0 | 4.0 | 0.00 | 0.00 | 0.00 | 26 | 1013.1 |
| 20260509034639 | 66 | 287 | 1.0 | 2.0 | 0.00 | 0.00 | 0.00 | 25 | 1013.2 |
| 20260509034136 | 67 | 343 | 0.0 | 3.0 | 0.00 | 0.00 | 0.00 | 25 | 1013.0 |
| 20260509033633 | 68 | 302 | 4.0 | 11.0 | 0.00 | 0.00 | 0.00 | 24 | 1013.1 |
| 20260509033130 | 68 | 282 | 4.0 | 10.0 | 0.00 | 0.00 | 0.00 | 24 | 1013.1 |
| 20260509032627 | 66 | 342 | 5.0 | 18.0 | 0.00 | 0.00 | 0.00 | 25 | 1013.0 |
| 20260509032124 | 63 | 296 | 6.0 | 8.0 | 0.00 | 0.00 | 0.00 | 28 | 1012.7 |
| 20260509031622 | 64 | 325 | 0.0 | 2.0 | 0.00 | 0.00 | 0.00 | 27 | 1012.6 |
| 20260509031119 | 65 | 356 | 1.0 | 2.0 | 0.00 | 0.00 | 0.00 | 27 | 1012.4 |
| 20260509030617 | 64 | 294 | 0.0 | 2.0 | 0.00 | 0.00 | 0.00 | 27 | 1012.4 |
| 20260509030114 | 64 | 330 | 1.0 | 2.0 | 0.00 | 0.00 | 0.00 | 28 | 1012.4 |
| 20260509025610 | 64 | 323 | 0.0 | 2.0 | 0.00 | 0.00 | 0.00 | 28 | 1012.6 |
| 20260509025105 | 65 | 327 | 0.0 | 1.0 | 0.00 | 0.00 | 0.00 | 27 | 1012.2 |
| 20260509024601 | 65 | 335 | 1.0 | 1.0 | 0.00 | 0.00 | 0.00 | 27 | 1012.1 |
| 20260509024057 | 66 | 350 | 0.0 | 3.0 | 0.00 | 0.00 | 0.00 | 26 | 1011.9 |
| 20260509023555 | 66 | 349 | 1.0 | 3.0 | 0.00 | 0.00 | 0.00 | 26 | 1011.8 |
| 20260509023052 | 67 | 347 | 0.0 | 2.0 | 0.00 | 0.00 | 0.00 | 26 | 1011.8 |
| 20260509022548 | 67 | 335 | 0.0 | 0.0 | 0.00 | 0.00 | 0.00 | 26 | 1011.7 |
| 20260509022047 | 68 | 332 | 0.0 | 0.0 | 0.00 | 0.00 | 0.00 | 26 | 1011.7 |
| 20260509021543 | 68 | 312 | 2.0 | 4.0 | 0.00 | 0.00 | 0.00 | 25 | 1011.6 |
| 20260509021040 | 68 | 353 | 0.0 | 4.0 | 0.00 | 0.00 | 0.00 | 25 | 1011.5 |
| 20260509020539 | 69 | 348 | 2.0 | 3.0 | 0.00 | 0.00 | 0.00 | 25 | 1011.4 |
| 20260509020035 | 69 | 327 | 0.0 | 4.0 | 0.00 | 0.00 | 0.00 | 24 | 1011.2 |
| 20260509015534 | 70 | 346 | 4.0 | 8.0 | 0.00 | 0.00 | 0.00 | 24 | 1011.2 |
| 20260509015031 | 70 | 352 | 0.0 | 4.0 | 0.00 | 0.00 | 0.00 | 23 | 1011.5 |
| 20260509014528 | 70 | 358 | 2.0 | 7.0 | 0.00 | 0.00 | 0.00 | 22 | 1011.2 |
| 20260509014024 | 71 | 8 | 4.0 | 6.0 | 0.00 | 0.00 | 0.00 | 21 | 1011.2 |
| 20260509013521 | 71 | 33 | 7.0 | 10.0 | 0.00 | 0.00 | 0.00 | 21 | 1011.4 |
| 20260509013016 | 71 | 352 | 3.0 | 8.0 | 0.00 | 0.00 | 0.00 | 21 | 1011.2 |
| 20260509012513 | 71 | 34 | 5.0 | 9.0 | 0.00 | 0.00 | 0.00 | 21 | 1011.5 |
| 20260509012010 | 71 | 333 | 1.0 | 8.0 | 0.00 | 0.00 | 0.00 | 21 | 1011.1 |
| 20260509011508 | 72 | 340 | 6.0 | 8.0 | 0.00 | 0.00 | 0.00 | 20 | 1011.2 |
| 20260509011005 | 72 | 341 | 3.0 | 8.0 | 0.00 | 0.00 | 0.00 | 20 | 1011.1 |
| 20260509010503 | 72 | 349 | 2.0 | 10.0 | 0.00 | 0.00 | 0.00 | 20 | 1011.2 |
| 20260509005959 | 72 | 3 | 7.0 | 11.0 | 0.00 | 0.00 | 0.00 | 20 | 1011.1 |
| 20260509005458 | 73 | 1 | 5.0 | 13.0 | 0.00 | 0.00 | 0.00 | 20 | 1011.2 |
| 20260509004957 | 73 | 332 | 7.0 | 13.0 | 0.00 | 0.00 | 0.00 | 19 | 1010.9 |
| 20260509004454 | 73 | 323 | 9.0 | 14.0 | 0.00 | 0.00 | 0.00 | 19 | 1011.2 |
| 20260509003952 | 73 | 338 | 8.0 | 14.0 | 0.00 | 0.00 | 0.00 | 19 | 1011.1 |
| 20260509003450 | 73 | 348 | 7.0 | 14.0 | 0.00 | 0.00 | 0.00 | 19 | 1011.1 |
| 20260509002946 | 73 | 348 | 9.0 | 16.0 | 0.00 | 0.00 | 0.00 | 19 | 1011.0 |
| 20260509002444 | 73 | 343 | 13.0 | 18.0 | 0.00 | 0.00 | 0.00 | 19 | 1011.1 |
| 20260509001941 | 73 | 318 | 7.0 | 14.0 | 0.00 | 0.00 | 0.00 | 19 | 1011.1 |
| 20260509001438 | 74 | 354 | 8.0 | 17.0 | 0.00 | 0.00 | 0.00 | 19 | 1011.1 |
| 20260509000935 | 74 | 326 | 8.0 | 14.0 | 0.00 | 0.00 | 0.00 | 19 | 1011.1 |
| 20260509000433 | 74 | 353 | 11.0 | 14.0 | 0.00 | 0.00 | 0.00 | 19 | 1011.0 |
| 20260508235928 | 74 | 14 | 9.0 | 15.0 | 0.00 | 0.00 | 0.00 | 19 | 1011.2 |
| 20260508235426 | 75 | 349 | 10.0 | 14.0 | 0.00 | 0.00 | 0.00 | 19 | 1011.1 |
| 20260508234923 | 75 | 323 | 9.0 | 17.0 | 0.00 | 0.00 | 0.00 | 19 | 1011.1 |
| 20260508234420 | 75 | 324 | 6.0 | 13.0 | 0.00 | 0.00 | 0.00 | 20 | 1011.1 |
| 20260508233917 | 75 | 326 | 6.0 | 9.0 | 0.00 | 0.00 | 0.00 | 19 | 1011.0 |
| 20260508233417 | 76 | 322 | 5.0 | 14.0 | 0.00 | 0.00 | 0.00 | 20 | 1011.1 |
| 20260508232913 | 75 | 336 | 7.0 | 16.0 | 0.00 | 0.00 | 0.00 | 19 | 1011.0 |
| 20260508232410 | 75 | 332 | 5.0 | 14.0 | 0.00 | 0.00 | 0.00 | 20 | 1011.0 |
| 20260508231908 | 76 | 323 | 9.0 | 17.0 | 0.00 | 0.00 | 0.00 | 20 | 1011.2 |
| 20260508231404 | 76 | 331 | 9.0 | 17.0 | 0.00 | 0.00 | 0.00 | 20 | 1011.0 |
| 20260508230901 | 76 | 306 | 10.0 | 14.0 | 0.00 | 0.00 | 0.00 | 20 | 1010.8 |
| 20260508230358 | 78 | 339 | 12.0 | 17.0 | 0.00 | 0.00 | 0.00 | 19 | 1010.9 |
| 20260508225855 | 78 | 318 | 8.0 | 15.0 | 0.00 | 0.00 | 0.00 | 19 | 1010.8 |
| 20260508225351 | 78 | 327 | 9.0 | 14.0 | 0.00 | 0.00 | 0.00 | 19 | 1011.0 |
| 20260508224850 | 79 | 339 | 10.0 | 13.0 | 0.00 | 0.00 | 0.00 | 18 | 1010.8 |
| 20260508224347 | 78 | 348 | 7.0 | 19.0 | 0.00 | 0.00 | 0.00 | 19 | 1010.8 |
| 20260508223844 | 79 | 347 | 11.0 | 17.0 | 0.00 | 0.00 | 0.00 | 18 | 1011.0 |
| 20260508223341 | 80 | 321 | 10.0 | 16.0 | 0.00 | 0.00 | 0.00 | 18 | 1011.0 |
| 20260508222839 | 78 | 293 | 6.0 | 11.0 | 0.00 | 0.00 | 0.00 | 19 | 1011.1 |
| 20260508222336 | 80 | 342 | 8.0 | 18.0 | 0.00 | 0.00 | 0.00 | 18 | 1011.1 |
| 20260508221832 | 78 | 283 | 6.0 | 13.0 | 0.00 | 0.00 | 0.00 | 20 | 1011.0 |
| 20260508221328 | 78 | 298 | 12.0 | 17.0 | 0.00 | 0.00 | 0.00 | 20 | 1011.2 |
| 20260508220825 | 79 | 295 | 8.0 | 10.0 | 0.00 | 0.00 | 0.00 | 20 | 1011.0 |
| 20260508220321 | 79 | 285 | 8.0 | 18.0 | 0.00 | 0.00 | 0.00 | 20 | 1011.1 |
| 20260508215818 | 80 | 287 | 10.0 | 16.0 | 0.00 | 0.00 | 0.00 | 20 | 1011.1 |
| 20260508215314 | 78 | 289 | 7.0 | 15.0 | 0.00 | 0.00 | 0.00 | 20 | 1010.9 |
| 20260508214811 | 78 | 278 | 10.0 | 14.0 | 0.00 | 0.00 | 0.00 | 20 | 1011.2 |
| 20260508214308 | 78 | 286 | 7.0 | 11.0 | 0.00 | 0.00 | 0.00 | 20 | 1011.2 |
| 20260508213805 | 77 | 313 | 4.0 | 14.0 | 0.00 | 0.00 | 0.00 | 19 | 1011.4 |
| 20260508213302 | 78 | 308 | 12.0 | 16.0 | 0.00 | 0.00 | 0.00 | 18 | 1011.4 |
| 20260508212758 | 78 | 272 | 12.0 | 16.0 | 0.00 | 0.00 | 0.00 | 19 | 1011.6 |
| 20260508212254 | 77 | 274 | 4.0 | 10.0 | 0.00 | 0.00 | 0.00 | 19 | 1011.4 |
| 20260508211750 | 78 | 246 | 14.0 | 17.0 | 0.00 | 0.00 | 0.00 | 19 | 1011.5 |
| 20260508211246 | 78 | 291 | 10.0 | 11.0 | 0.00 | 0.00 | 0.00 | 20 | 1011.4 |
| 20260508210744 | 78 | 310 | 15.0 | 21.0 | 0.00 | 0.00 | 0.00 | 20 | 1011.6 |
| 20260508210241 | 78 | 304 | 8.0 | 14.0 | 0.00 | 0.00 | 0.00 | 21 | 1011.7 |
| 20260508205737 | 77 | 305 | 4.0 | 10.0 | 0.00 | 0.00 | 0.00 | 21 | 1011.6 |
| 20260508205234 | 78 | 237 | 11.0 | 14.0 | 0.00 | 0.00 | 0.00 | 20 | 1011.7 |
| 20260508204730 | 78 | 339 | 9.0 | 15.0 | 0.00 | 0.00 | 0.00 | 20 | 1011.7 |
| 20260508204227 | 78 | 332 | 11.0 | 15.0 | 0.00 | 0.00 | 0.00 | 20 | 1011.8 |
| 20260508203723 | 78 | 267 | 8.0 | 15.0 | 0.00 | 0.00 | 0.00 | 19 | 1011.6 |
| 20260508203219 | 77 | 288 | 9.0 | 16.0 | 0.00 | 0.00 | 0.00 | 20 | 1011.7 |
| 20260508202715 | 77 | 300 | 9.0 | 18.0 | 0.00 | 0.00 | 0.00 | 21 | 1011.7 |
| 20260508202213 | 77 | 226 | 6.0 | 13.0 | 0.00 | 0.00 | 0.00 | 22 | 1011.7 |
| 20260508201709 | 76 | 309 | 5.0 | 11.0 | 0.00 | 0.00 | 0.00 | 21 | 1011.8 |
| 20260508201206 | 76 | 236 | 6.0 | 13.0 | 0.00 | 0.00 | 0.00 | 23 | 1011.9 |
| 20260508200703 | 76 | 255 | 8.0 | 15.0 | 0.00 | 0.00 | 0.00 | 24 | 1012.2 |
| 20260508200159 | 77 | 233 | 8.0 | 16.0 | 0.00 | 0.00 | 0.00 | 22 | 1012.1 |
| 20260508195656 | 76 | 273 | 8.0 | 10.0 | 0.00 | 0.00 | 0.00 | 24 | 1012.2 |
| 20260508195152 | 76 | 247 | 4.0 | 14.0 | 0.00 | 0.00 | 0.00 | 26 | 1012.0 |
| 20260508194649 | 75 | 299 | 3.0 | 9.0 | 0.00 | 0.00 | 0.00 | 27 | 1012.1 |
| 20260508194146 | 76 | 254 | 6.0 | 14.0 | 0.00 | 0.00 | 0.00 | 26 | 1012.2 |
| 20260508193643 | 78 | 241 | 6.0 | 16.0 | 0.00 | 0.00 | 0.00 | 26 | 1012.2 |
| 20260508193139 | 76 | 268 | 5.0 | 13.0 | 0.00 | 0.00 | 0.00 | 26 | 1012.3 |
| 20260508192636 | 75 | 274 | 11.0 | 15.0 | 0.00 | 0.00 | 0.00 | 26 | 1012.4 |
| 20260508192133 | 74 | 289 | 6.0 | 8.0 | 0.00 | 0.00 | 0.00 | 27 | 1012.4 |
| 20260508191630 | 75 | 319 | 5.0 | 11.0 | 0.00 | 0.00 | 0.00 | 27 | 1012.6 |
| 20260508191127 | 76 | 302 | 7.0 | 11.0 | 0.00 | 0.00 | 0.00 | 27 | 1012.7 |
| 20260508190624 | 75 | 284 | 4.0 | 8.0 | 0.00 | 0.00 | 0.00 | 28 | 1012.9 |
| 20260508190120 | 74 | 291 | 10.0 | 13.0 | 0.00 | 0.00 | 0.00 | 28 | 1013.0 |
| 20260508185617 | 75 | 273 | 7.0 | 13.0 | 0.00 | 0.00 | 0.00 | 29 | 1012.8 |
| 20260508185115 | 73 | 247 | 5.0 | 10.0 | 0.00 | 0.00 | 0.00 | 30 | 1013.0 |
| 20260508184612 | 74 | 253 | 8.0 | 9.0 | 0.00 | 0.00 | 0.00 | 30 | 1013.1 |
| 20260508184109 | 73 | 273 | 5.0 | 11.0 | 0.00 | 0.00 | 0.00 | 30 | 1013.0 |
| 20260508183605 | 73 | 272 | 4.0 | 7.0 | 0.00 | 0.00 | 0.00 | 31 | 1013.3 |
| 20260508183101 | 72 | 322 | 7.0 | 9.0 | 0.00 | 0.00 | 0.00 | 32 | 1013.3 |
| 20260508182558 | 72 | 337 | 3.0 | 10.0 | 0.00 | 0.00 | 0.00 | 33 | 1013.3 |
| 20260508182055 | 72 | 277 | 1.0 | 3.0 | 0.00 | 0.00 | 0.00 | 33 | 1013.4 |
| 20260508181549 | 73 | 270 | 5.0 | 9.0 | 0.00 | 0.00 | 0.00 | 33 | 1013.7 |
| 20260508181047 | 72 | 286 | 4.0 | 6.0 | 0.00 | 0.00 | 0.00 | 33 | 1013.5 |
| 20260508180543 | 71 | 269 | 6.0 | 8.0 | 0.00 | 0.00 | 0.00 | 34 | 1013.7 |
| 20260508180040 | 70 | 269 | 0.0 | 9.0 | 0.00 | 0.00 | 0.00 | 37 | 1013.7 |
| 20260508175537 | 70 | 227 | 5.0 | 11.0 | 0.00 | 0.00 | 0.00 | 36 | 1013.7 |
| 20260508175034 | 71 | 249 | 6.0 | 14.0 | 0.00 | 0.00 | 0.00 | 36 | 1013.8 |
| 20260508174531 | 71 | 274 | 2.0 | 8.0 | 0.00 | 0.00 | 0.00 | 35 | 1013.8 |
| 20260508174028 | 71 | 240 | 7.0 | 10.0 | 0.00 | 0.00 | 0.00 | 36 | 1013.8 |
| 20260508173525 | 69 | 261 | 3.0 | 4.0 | 0.00 | 0.00 | 0.00 | 37 | 1013.9 |
| 20260508173021 | 69 | 298 | 2.0 | 7.0 | 0.00 | 0.00 | 0.00 | 39 | 1014.1 |
| 20260508172519 | 69 | 233 | 1.0 | 7.0 | 0.00 | 0.00 | 0.00 | 39 | 1014.0 |
| 20260508172015 | 69 | 297 | 3.0 | 9.0 | 0.00 | 0.00 | 0.00 | 39 | 1014.1 |
| 20260508171512 | 69 | 276 | 4.0 | 6.0 | 0.00 | 0.00 | 0.00 | 39 | 1014.1 |
| 20260508171008 | 68 | 268 | 3.0 | 6.0 | 0.00 | 0.00 | 0.00 | 39 | 1014.4 |
| 20260508170506 | 68 | 285 | 4.0 | 9.0 | 0.00 | 0.00 | 0.00 | 39 | 1014.3 |
| 20260508170002 | 69 | 224 | 4.0 | 9.0 | 0.00 | 0.00 | 0.00 | 40 | 1014.3 |
| 20260508165500 | 68 | 224 | 4.0 | 8.0 | 0.00 | 0.00 | 0.00 | 41 | 1014.5 |
| 20260508164956 | 68 | 246 | 4.0 | 9.0 | 0.00 | 0.00 | 0.00 | 41 | 1014.3 |
| 20260508164453 | 68 | 238 | 4.0 | 7.0 | 0.00 | 0.00 | 0.00 | 41 | 1014.3 |
| 20260508163950 | 67 | 247 | 2.0 | 6.0 | 0.00 | 0.00 | 0.00 | 43 | 1014.5 |
| 20260508163448 | 67 | 256 | 4.0 | 7.0 | 0.00 | 0.00 | 0.00 | 42 | 1014.4 |
| 20260508162943 | 66 | 298 | 2.0 | 8.0 | 0.00 | 0.00 | 0.00 | 42 | 1014.5 |
| 20260508162441 | 65 | 224 | 4.0 | 8.0 | 0.00 | 0.00 | 0.00 | 46 | 1014.7 |
| 20260508161937 | 65 | 279 | 1.0 | 3.0 | 0.00 | 0.00 | 0.00 | 46 | 1014.7 |
| 20260508161434 | 65 | 238 | 2.0 | 3.0 | 0.00 | 0.00 | 0.00 | 47 | 1014.7 |
| 20260508160932 | 64 | 273 | 2.0 | 6.0 | 0.00 | 0.00 | 0.00 | 48 | 1014.9 |
| 20260508160431 | 63 | 215 | 4.0 | 6.0 | 0.00 | 0.00 | 0.00 | 49 | 1014.9 |
| 20260508155926 | 63 | 254 | 2.0 | 8.0 | 0.00 | 0.00 | 0.00 | 51 | 1014.7 |
| 20260508155424 | 62 | 250 | 3.0 | 6.0 | 0.00 | 0.00 | 0.00 | 50 | 1015.1 |
| 20260508154921 | 62 | 232 | 4.0 | 6.0 | 0.00 | 0.00 | 0.00 | 51 | 1015.0 |
| 20260508154418 | 63 | 242 | 1.0 | 3.0 | 0.00 | 0.00 | 0.00 | 51 | 1015.1 |
| 20260508153915 | 61 | 265 | 2.0 | 3.0 | 0.00 | 0.00 | 0.00 | 51 | 1015.1 |
| 20260508153412 | 60 | 260 | 3.0 | 4.0 | 0.00 | 0.00 | 0.00 | 54 | 1015.2 |
| 20260508152908 | 59 | 225 | 4.0 | 6.0 | 0.00 | 0.00 | 0.00 | 56 | 1015.3 |
| 20260508152404 | 58 | 226 | 2.0 | 6.0 | 0.00 | 0.00 | 0.00 | 57 | 1015.3 |
| 20260508151901 | 58 | 257 | 4.0 | 6.0 | 0.00 | 0.00 | 0.00 | 58 | 1015.2 |
| 20260508151358 | 58 | 275 | 2.0 | 6.0 | 0.00 | 0.00 | 0.00 | 59 | 1015.4 |
| 20260508150854 | 57 | 271 | 2.0 | 3.0 | 0.00 | 0.00 | 0.00 | 61 | 1015.4 |
| 20260508150351 | 57 | 260 | 1.0 | 6.0 | 0.00 | 0.00 | 0.00 | 61 | 1015.5 |
| 20260508145847 | 56 | 231 | 2.0 | 3.0 | 0.00 | 0.00 | 0.00 | 64 | 1015.4 |
| 20260508145343 | 55 | 253 | 4.0 | 4.0 | 0.00 | 0.00 | 0.00 | 64 | 1015.5 |
| 20260508144840 | 54 | 269 | 1.0 | 3.0 | 0.00 | 0.00 | 0.00 | 66 | 1015.6 |
| 20260508144338 | 53 | 231 | 2.0 | 4.0 | 0.00 | 0.00 | 0.00 | 67 | 1015.6 |
| 20260508143835 | 53 | 258 | 1.0 | 2.0 | 0.00 | 0.00 | 0.00 | 69 | 1015.6 |
| 20260508143332 | 52 | 246 | 4.0 | 6.0 | 0.00 | 0.00 | 0.00 | 69 | 1015.6 |
| 20260508142829 | 52 | 223 | 3.0 | 4.0 | 0.00 | 0.00 | 0.00 | 70 | 1015.7 |
| 20260508142326 | 52 | 261 | 1.0 | 3.0 | 0.00 | 0.00 | 0.00 | 70 | 1015.6 |
| 20260508141822 | 51 | 249 | 0.0 | 2.0 | 0.00 | 0.00 | 0.00 | 73 | 1015.6 |
| 20260508141320 | 50 | 276 | 0.0 | 1.0 | 0.00 | 0.00 | 0.00 | 73 | 1015.9 |
| 20260508140817 | 49 | 251 | 1.0 | 3.0 | 0.00 | 0.00 | 0.00 | 74 | 1015.7 |
| 20260508140314 | 48 | 222 | 0.0 | 0.0 | 0.00 | 0.00 | 0.00 | 75 | 1015.9 |
| 20260508135809 | 48 | 281 | 0.0 | 0.0 | 0.00 | 0.00 | 0.00 | 76 | 1015.8 |